Regional Weather Roundup
Issued by NWS

Home | Current Version | Previous Version | Text Only | Print | Product List | Glossary On
Versions: 1 2 3 4 5 6 7 8 9 10 11 12 13 14 15 16 17 18 19 20 21 22 23 24 25 26 27 28 29 30 31 32 33 34 35 36 37 38 39 40 41 42 43 44 45 46 47 48 49 50
000
ASUS43 KDTX 211201
RWRMI
MICHIGAN HOURLY REGIONAL WEATHER ROUNDUP
NATIONAL WEATHER SERVICE DETROIT/PONTIAC MI
800 AM EDT THU AUG 21 2014

NOTE: "FAIR" INDICATES FEW OR NO CLOUDS BELOW 12,000 FEET WITH NO
SIGNIFICANT WEATHER AND/OR OBSTRUCTION TO VISIBILITY.

MIZ047>049-052>055-059>063-066>070-074>076-081>083-211300-
SOUTHEAST LOWER MICHIGAN

CITY           SKY/WX    TMP DP  RH WIND       PRES   REMARKS
ADRIAN         MOSUNNY   66  64  93 CALM      29.98S FOG
6HR MIN TEMP:  64; 6HR MAX TEMP:  68;

ALMA           SUNNY     60  59  97 CALM      29.99R FOG
ANN ARBOR      MOSUNNY   64  61  90 CALM      29.99R
BAD AXE        CLOUDY    64  64 100 CALM      30.00R FOG
6HR MIN TEMP:  62; 6HR MAX TEMP:  65;

CARO           CLOUDY    60  60 100 CALM      29.99R FOG
DETROIT CITY   MOSUNNY   70  63  78 CALM      29.98R
6HR MIN TEMP:  67; 6HR MAX TEMP:  73;

DETROIT        CLOUDY    70  64  81 CALM      29.98R
6HR MIN TEMP:  67; 6HR MAX TEMP:  70;

FLINT          SUNNY     66  61  84 NE5       29.99R
6HR MIN TEMP:  61; 6HR MAX TEMP:  67;

GROSSE ILE     MOSUNNY   70  66  88 CALM      29.97R
HILLSDALE      MOSUNNY   70  70 100 W3        29.99R FOG
6HR MIN TEMP:  64; 6HR MAX TEMP:  70;

HOWELL         MOSUNNY   63  62  99 CALM      29.99R FOG
6HR MIN TEMP:  60; 6HR MAX TEMP:  65;


CITY           SKY/WX    TMP DP  RH WIND       PRES   REMARKS
JACKSON        CLOUDY    66  64  93 CALM      29.98S FOG
6HR MIN TEMP:  63; 6HR MAX TEMP:  67;

LAMBERTVILLE   MOSUNNY   66  64  94 CALM      29.98S FOG
LANSING        MOSUNNY   64  61  90 CALM      29.99R
6HR MIN TEMP:  60; 6HR MAX TEMP:  65;

LAPEER         CLOUDY    61  60  96 CALM      30.00R FOG
MASON          MOSUNNY   61  61  98 CALM      29.99R FOG
MONROE         MOSUNNY   66  64  94 CALM      29.96S FOG
MT. CLEMENS    MOSUNNY   66  63  91 N5        29.97R
6HR MIN TEMP:  62; 6HR MAX TEMP:  68;

PONTIAC        MOSUNNY   65  61  87 N5        29.99R
6HR MIN TEMP:  63; 6HR MAX TEMP:  67;

PORT HOPE        N/A     66  63  90 CALM      29.97R
6HR MIN TEMP:  65; 6HR MAX TEMP:  67;

PORT HURON     FOG       63  63 100 N6        30.00R VSB 1/2
TRI CITIES     SUNNY     63  60  90 N3        30.00R
6HR MIN TEMP:  60; 6HR MAX TEMP:  64;

TROY           MOSUNNY   67  63  84 CALM      30.00R
SAGINAW HB     SUNNY     63  63 100 CALM      29.99R
$$
MIZ043>046-050>051-056>058-064>065-071>073-077>080-211300-
SOUTHWEST LOWER MICHIGAN

CITY           SKY/WX    TMP DP  RH WIND       PRES   REMARKS
BATTLE CREEK   MOSUNNY   69  67  93 SW3       29.98R FOG
6HR MIN TEMP:  66; 6HR MAX TEMP:  72;

BENTON HARBOR  MOSUNNY   70  67  90 CALM      29.93F
6HR MIN TEMP:  67; 6HR MAX TEMP:  74;

BIG RAPIDS     FOG       57  57 100 CALM      29.98S VSB 1/4
6HR MIN TEMP:  56; 6HR MAX TEMP:  58;

COLDWATER      MOSUNNY   69  68  96 CALM      29.98S FOG
6HR MIN TEMP:  67; 6HR MAX TEMP:  70;

FREMONT        FAIR      63  62  97 E6        29.96S
6HR MIN TEMP:  59; 6HR MAX TEMP:  63;

HOLLAND        CLOUDY    69  66  90 CALM      29.96S FOG
6HR MIN TEMP:  65; 6HR MAX TEMP:  69;

GRAND RAPIDS   MOSUNNY   65  65 100 E6        29.97S
6HR MIN TEMP:  64; 6HR MAX TEMP:  67;

IONIA          PTSUNNY   61  60  97 CALM      29.98R FOG
KALAMAZOO      MOSUNNY   70  67  90 SW5       29.97S
6HR MIN TEMP:  65; 6HR MAX TEMP:  70;

LUDINGTON      MOSUNNY   59  59  97 CALM      29.97R
6HR MIN TEMP:  55; 6HR MAX TEMP:  59;

MARSHALL       CLOUDY    67  67  99 CALM      29.97S FOG
MOUNT PLEASANT FOG       59  58  97 CALM      29.98S VSB 1/2
6HR MIN TEMP:  56; 6HR MAX TEMP:  60;

MUSKEGON       MOSUNNY   65  61  87 E3        29.97R
6HR MIN TEMP:  63; 6HR MAX TEMP:  67;

SOUTH HAVEN    MOSUNNY   71  69  92 SW5       29.95F
$$
MIZ016>042-211300-
NORTHERN LOWER MICHIGAN

CITY           SKY/WX    TMP DP  RH WIND       PRES   REMARKS
ALPENA         CLOUDY    64  62  93 NW5       29.98R
6HR MIN TEMP:  63; 6HR MAX TEMP:  64;

BEAVER ISLAND  CLOUDY    62  61  97 CALM      29.99R
BELLAIRE       CLOUDY    64  62  95 CALM      29.98R
6HR MIN TEMP:  63; 6HR MAX TEMP:  64;

CADILLAC       CLOUDY    56  56 100 CALM      29.99S
CHARLEVOIX     CLOUDY    64  64 100 CALM      30.01R
6HR MIN TEMP:  63; 6HR MAX TEMP:  64;

FRANKFORT      SUNNY     57  54  89 CALM      29.98S
GAYLORD        CLOUDY    60  60 100 NW3       29.99S
6HR MIN TEMP:  60; 6HR MAX TEMP:  61;

GRAYLING       CLOUDY    62  62  99 N3        29.99S
6HR MIN TEMP:  62; 6HR MAX TEMP:  63;

HARBOR SPRINGS CLOUDY    64  61  91 CALM      29.98S
HOUGHTON LAKE  CLOUDY    62  59  90 CALM      30.00R
6HR MIN TEMP:  60; 6HR MAX TEMP:  63;

MANISTEE       SUNNY     55  54  94 SE5       29.98S
OSCODA         SUNNY     63  61  95 CALM      29.98R
PELLSTON       CLOUDY    63  61  93 CALM      29.99R
6HR MIN TEMP:  62; 6HR MAX TEMP:  63; 6HR PCP: TRACE;

ROGERS CITY    CLOUDY    62  62 100 NW3       29.99S FOG
TRAVERSE CITY  PTSUNNY   63  60  90 CALM      29.97S
6HR MIN TEMP:  61; 6HR MAX TEMP:  63;

$$
MIZ007>008-015-211300-
EASTERN UPPER MICHIGAN

CITY           SKY/WX    TMP DP  RH WIND       PRES   REMARKS
KINROSS        CLOUDY    59  57  94 NW5       29.98S VSB 3/4
6HR MIN TEMP:  59; 6HR MAX TEMP:  61; 6HR PCP:  0.01;

MACKINAC ISLAN CLOUDY    60  60 100 NW3       29.97F FOG
6HR MIN TEMP:  59; 6HR MAX TEMP:  61;

NEWBERRY       FOG       57  57 100 CALM      29.98S VSB 1/4
S. S. MARIE    CLOUDY    60  58  92 NW5       29.97S
6HR MIN TEMP:  59; 6HR MAX TEMP:  61;

$$
MIZ004>006-011>014-085-211300-
CENTRAL UPPER MICHIGAN

CITY           SKY/WX    TMP DP  RH WIND       PRES   REMARKS
MANISTIQUE     FOG       59  59 100 N3        29.98R VSB 3/4
6HR MIN TEMP:  55; 6HR MAX TEMP:  60;

ESCANABA       CLOUDY    61  57  88 NE6       29.97R VSB 1/2
6HR MIN TEMP:  61; 6HR MAX TEMP:  63; 6HR PCP:  0.01;

MENOMINEE      CLOUDY    63  61  94 CALM      29.95S
6HR MIN TEMP:  61; 6HR MAX TEMP:  66;

$$
MIZ001>003-009>011-084-211300-
WESTERN UPPER MICHIGAN

CITY           SKY/WX    TMP DP  RH WIND       PRES   REMARKS
IRON MOUNTAIN  CLOUDY    60  58  92 CALM      29.96S FOG
6HR MIN TEMP:  57; 6HR MAX TEMP:  64;

HOUGHTON       FOG       60  59  96 E5        29.98R VSB<1/4
6HR MIN TEMP:  60; 6HR MAX TEMP:  60;

COPPER HARBOR    N/A     57  56  96 CALM      29.98R
6HR MIN TEMP:  54; 6HR MAX TEMP:  59;

$$

ABBREVIATIONS USED IN REMARKS
   TC - TEMPERATURE IN CELSIUS
  WCI - WIND CHILL INDEX
   HX - HEAT INDEX
  VSB - VISIBILITY




USA.gov is the U.S. government's official web portal to all federal, state and local government web resources and services.